TimeEDT,TemperatureF,Dew PointF,Humidity,Sea Level PressureIn,VisibilityMPH,Wind Direction,Wind SpeedMPH,Gust SpeedMPH,PrecipitationIn,Events,Conditions,WindDirDegrees,DateUTC
12:53 AM,68.0,66.0,93,29.92,9.0,Calm,Calm,-,0.01,,Overcast,0,2012-10-03 04:53:00
1:53 AM,66.9,66.0,97,29.95,7.0,SSW,3.5,-,N/A,,Overcast,210,2012-10-03 05:53:00
2:53 AM,68.0,66.0,93,29.97,8.0,Calm,Calm,-,N/A,,Overcast,0,2012-10-03 06:53:00
3:26 AM,68.0,64.4,88,30.00,8.0,South,3.5,-,N/A,,Overcast,190,2012-10-03 07:26:00
3:34 AM,68.0,64.4,88,30.00,9.0,SSW,3.5,-,N/A,,Overcast,210,2012-10-03 07:34:00
3:44 AM,68.0,66.2,94,30.00,9.0,Calm,Calm,-,N/A,,Overcast,0,2012-10-03 07:44:00
3:53 AM,68.0,66.0,93,29.99,9.0,Calm,Calm,-,N/A,,Overcast,0,2012-10-03 07:53:00
4:30 AM,66.2,64.4,94,30.02,10.0,WSW,4.6,-,N/A,,Overcast,240,2012-10-03 08:30:00
4:53 AM,66.9,63.0,87,30.01,10.0,WSW,5.8,-,N/A,,Overcast,250,2012-10-03 08:53:00
6:53 AM,64.9,61.0,87,30.06,10.0,SSW,3.5,-,N/A,,Overcast,210,2012-10-03 10:53:00
7:53 AM,64.9,61.0,87,30.08,10.0,Calm,Calm,-,N/A,,Overcast,0,2012-10-03 11:53:00
8:53 AM,64.9,62.1,90,30.10,10.0,SSW,3.5,-,N/A,,Overcast,210,2012-10-03 12:53:00
9:53 AM,66.9,62.1,84,30.11,10.0,SSW,4.6,-,N/A,,Mostly Cloudy,210,2012-10-03 13:53:00
10:53 AM,66.9,60.1,79,30.12,10.0,Variable,4.6,-,N/A,,Partly Cloudy,0,2012-10-03 14:53:00
11:53 AM,70.0,57.0,63,30.12,10.0,SW,8.1,-,N/A,,Partly Cloudy,230,2012-10-03 15:53:00
12:53 PM,72.0,57.0,59,30.13,10.0,SSW,10.4,17.3,N/A,,Partly Cloudy,200,2012-10-03 16:53:00
1:53 PM,73.0,55.9,55,30.12,10.0,SW,9.2,-,N/A,,Scattered Clouds,220,2012-10-03 17:53:00
2:53 PM,73.0,57.0,57,30.10,10.0,Variable,6.9,-,N/A,,Mostly Cloudy,0,2012-10-03 18:53:00
4:53 PM,73.9,55.0,52,30.09,10.0,WSW,6.9,-,N/A,,Partly Cloudy,240,2012-10-03 20:53:00
5:53 PM,73.0,57.0,57,30.11,10.0,Calm,Calm,-,N/A,,Scattered Clouds,0,2012-10-03 21:53:00
6:53 PM,69.1,57.9,68,30.12,10.0,Calm,Calm,-,N/A,,Clear,0,2012-10-03 22:53:00
7:53 PM,66.9,59.0,76,30.13,10.0,Calm,Calm,-,N/A,,Clear,0,2012-10-03 23:53:00
8:53 PM,63.0,60.1,90,30.14,10.0,Calm,Calm,-,N/A,,Clear,0,2012-10-04 00:53:00
9:53 PM,62.1,59.0,90,30.15,10.0,Calm,Calm,-,N/A,,Clear,0,2012-10-04 01:53:00
10:53 PM,61.0,59.0,93,30.17,9.0,Calm,Calm,-,N/A,,Clear,0,2012-10-04 02:53:00
11:53 PM,60.1,57.9,93,30.18,8.0,Calm,Calm,-,N/A,,Partly Cloudy,0,2012-10-04 03:53:00